When you browse on this site, cookies collect data to enhance your experience and personalize the content and advertising you see.
Visit our Privacy Policy to learn more. By continuing to use the site, you agree to this use of cookies and data.
EN

Hourly Weather La Rioja

Today, 12 July, Sunday

Time Temperature Precipitation Wind Pressure Humidity
00:00 +12°C° 0 mm 1 mps 710 mmHg 70%
01:00 +11°C° 0 mm 1 mps 710 mmHg 72%
02:00 +11°C° 0 mm 1 mps 710 mmHg 74%
03:00 +10°C° 0 mm 2 mps 710 mmHg 76%
04:00 +9°C° 0 mm 2 mps 711 mmHg 78%
05:00 +9°C° 0 mm 2 mps 711 mmHg 80%
06:00 +9°C° 0 mm 2 mps 712 mmHg 78%
07:00 +10°C° 0 mm 1 mps 712 mmHg 76%
08:00 +11°C° 0 mm 1 mps 713 mmHg 74%
09:00 +13°C° 0 mm 1 mps 713 mmHg 66%
10:00 +15°C° 0 mm 2 mps 714 mmHg 58%
11:00 +18°C° 0 mm 2 mps 715 mmHg 50%
12:00 +18°C° 0 mm 2 mps 714 mmHg 48%
13:00 +19°C° 0 mm 2 mps 713 mmHg 45%
14:00 +20°C° 0 mm 2 mps 712 mmHg 43%
15:00 +20°C° 0 mm 2 mps 712 mmHg 45%
16:00 +19°C° 0 mm 2 mps 712 mmHg 47%
17:00 +19°C° 0 mm 2 mps 713 mmHg 48%
18:00 +17°C° 0 mm 2 mps 713 mmHg 55%
19:00 +15°C° 0 mm 1 mps 713 mmHg 62%
20:00 +14°C° 0 mm 1 mps 714 mmHg 69%
21:00 +13°C° 0 mm 2 mps 714 mmHg 70%
22:00 +13°C° 0 mm 2 mps 714 mmHg 71%
23:00 +12°C° 0 mm 2 mps 715 mmHg 73%

Tomorrow, 13 July, Monday

Time Temperature Precipitation Wind Pressure Humidity
00:00 +10°C° 0 mm 2 mps 715 mmHg 72%
01:00 +10°C° 0 mm 2 mps 715 mmHg 72%
02:00 +9°C° 0 mm 2 mps 715 mmHg 71%
03:00 +9°C° 0 mm 2 mps 715 mmHg 71%
04:00 +8°C° 0 mm 2 mps 715 mmHg 71%
05:00 +8°C° 0 mm 2 mps 715 mmHg 71%
06:00 +8°C° 0 mm 2 mps 715 mmHg 69%
07:00 +8°C° 0 mm 2 mps 716 mmHg 68%
08:00 +9°C° 0 mm 1 mps 716 mmHg 66%
09:00 +10°C° 0 mm 2 mps 717 mmHg 59%
10:00 +13°C° 0 mm 2 mps 717 mmHg 51%
11:00 +15°C° 0 mm 2 mps 718 mmHg 44%
12:00 +16°C° 0 mm 2 mps 717 mmHg 43%
13:00 +17°C° 0 mm 2 mps 717 mmHg 42%
14:00 +18°C° 0 mm 2 mps 717 mmHg 40%
15:00 +17°C° 0 mm 2 mps 717 mmHg 42%
16:00 +17°C° 0 mm 2 mps 717 mmHg 44%
17:00 +17°C° 0 mm 2 mps 718 mmHg 46%
18:00 +15°C° 0 mm 2 mps 718 mmHg 51%
19:00 +14°C° 0 mm 2 mps 719 mmHg 56%
20:00 +12°C° 0 mm 1 mps 720 mmHg 62%
21:00 +11°C° 0 mm 1 mps 720 mmHg 64%
22:00 +11°C° 0 mm 1 mps 721 mmHg 67%
23:00 +10°C° 0 mm 1 mps 721 mmHg 69%

Day after tomorrow, 14 July, Tuesday

Time Temperature Precipitation Wind Pressure Humidity
00:00 +10°C° 0 mm 1 mps 721 mmHg 70%
01:00 +9°C° 0 mm 1 mps 721 mmHg 70%
02:00 +8°C° 0 mm 2 mps 720 mmHg 71%
03:00 +9°C° 0 mm 1 mps 720 mmHg 72%
04:00 +8°C° 0 mm 1 mps 720 mmHg 73%
05:00 +8°C° 0 mm 1 mps 720 mmHg 74%
06:00 +8°C° 0 mm 1 mps 720 mmHg 74%
07:00 +8°C° 0 mm 1 mps 720 mmHg 73%
08:00 +8°C° 0 mm 1 mps 720 mmHg 73%
09:00 +10°C° 0 mm 1 mps 720 mmHg 65%
10:00 +12°C° 0 mm 1 mps 720 mmHg 57%
11:00 +14°C° 0 mm 2 mps 720 mmHg 49%
12:00 +15°C° 0 mm 2 mps 719 mmHg 47%
13:00 +16°C° 0 mm 2 mps 718 mmHg 45%
14:00 +17°C° 0 mm 2 mps 716 mmHg 43%
15:00 +17°C° 0 mm 2 mps 716 mmHg 44%
16:00 +16°C° 0 mm 2 mps 716 mmHg 45%
17:00 +16°C° 0 mm 1 mps 715 mmHg 45%
18:00 +15°C° 0 mm 1 mps 715 mmHg 51%
19:00 +13°C° 0 mm 1 mps 715 mmHg 56%
20:00 +12°C° 0 mm 1 mps 716 mmHg 61%
21:00 +11°C° 0 mm 1 mps 716 mmHg 64%
22:00 +10°C° 0 mm 1 mps 716 mmHg 68%
23:00 +10°C° 0 mm 1 mps 715 mmHg 71%

15 July, Wednesday

Time Temperature Precipitation Wind Pressure Humidity
00:00 +9°C° 0 mm 1 mps 715 mmHg 73%
01:00 +9°C° 0 mm 1 mps 715 mmHg 75%
02:00 +8°C° 0 mm 1 mps 714 mmHg 77%
03:00 +8°C° 0 mm 1 mps 714 mmHg 78%
04:00 +8°C° 0 mm 1 mps 713 mmHg 78%
05:00 +7°C° 0 mm 1 mps 713 mmHg 79%
06:00 +8°C° 0 mm 1 mps 714 mmHg 77%
07:00 +7°C° 0 mm 2 mps 714 mmHg 76%
08:00 +7°C° 0 mm 2 mps 714 mmHg 75%
09:00 +9°C° 0 mm 2 mps 715 mmHg 67%
10:00 +13°C° 0 mm 2 mps 715 mmHg 58%
11:00 +14°C° 0 mm 3 mps 715 mmHg 49%
12:00 +16°C° 0 mm 2 mps 715 mmHg 47%
13:00 +17°C° 0 mm 2 mps 714 mmHg 44%
14:00 +18°C° 0 mm 2 mps 714 mmHg 42%
15:00 +18°C° 0 mm 2 mps 714 mmHg 42%
16:00 +18°C° 0 mm 1 mps 714 mmHg 43%
17:00 +18°C° 0 mm 1 mps 714 mmHg 44%
18:00 +15°C° 0 mm 1 mps 715 mmHg 50%
19:00 +14°C° 0 mm 1 mps 715 mmHg 57%
20:00 +12°C° 0 mm 1 mps 715 mmHg 63%
21:00 +11°C° 0 mm 1 mps 715 mmHg 66%
22:00 +11°C° 0 mm 1 mps 715 mmHg 69%
23:00 +10°C° 0 mm 1 mps 715 mmHg 72%

16 July, Thursday

Time Temperature Precipitation Wind Pressure Humidity
00:00 +10°C° 0 mm 1 mps 715 mmHg 73%
01:00 +10°C° 0 mm 1 mps 715 mmHg 74%
02:00 +9°C° 0 mm 1 mps 715 mmHg 75%
03:00 +9°C° 0 mm 1 mps 714 mmHg 75%
04:00 +9°C° 0 mm 1 mps 714 mmHg 76%
05:00 +8°C° 0 mm 1 mps 714 mmHg 76%
06:00 +9°C° 0 mm 1 mps 714 mmHg 76%
07:00 +9°C° 0 mm 1 mps 715 mmHg 76%
08:00 +9°C° 0 mm 1 mps 715 mmHg 76%
09:00 +11°C° 0 mm 1 mps 715 mmHg 66%
10:00 +14°C° 0 mm 1 mps 715 mmHg 56%
11:00 +16°C° 0 mm 2 mps 716 mmHg 47%
12:00 +17°C° 0 mm 2 mps 715 mmHg 45%
13:00 +18°C° 0 mm 2 mps 714 mmHg 43%
14:00 +19°C° 0 mm 2 mps 713 mmHg 41%
15:00 +19°C° 0 mm 2 mps 713 mmHg 42%
16:00 +20°C° 0 mm 1 mps 713 mmHg 43%
17:00 +19°C° 0 mm 1 mps 712 mmHg 44%
18:00 +18°C° 0 mm 1 mps 712 mmHg 50%
19:00 +15°C° 0 mm 1 mps 713 mmHg 56%
20:00 +13°C° 0 mm 2 mps 713 mmHg 61%
21:00 +13°C° 0 mm 1 mps 713 mmHg 65%
22:00 +12°C° 0 mm 1 mps 712 mmHg 69%
23:00 +11°C° 0 mm 1 mps 712 mmHg 72%

17 July, Friday

Time Temperature Precipitation Wind Pressure Humidity
00:00 +11°C° 0 mm 1 mps 712 mmHg 73%
01:00 +10°C° 0 mm 1 mps 712 mmHg 75%
02:00 +10°C° 0 mm 1 mps 711 mmHg 76%
03:00 +10°C° 0 mm 1 mps 711 mmHg 76%
04:00 +9°C° 0 mm 1 mps 710 mmHg 76%
05:00 +9°C° 0 mm 1 mps 710 mmHg 76%
06:00 +10°C° 0 mm 1 mps 710 mmHg 74%
07:00 +10°C° 0 mm 1 mps 709 mmHg 71%
08:00 +11°C° 0 mm 1 mps 709 mmHg 69%
09:00 +13°C° 0 mm 2 mps 709 mmHg 60%
10:00 +16°C° 0 mm 2 mps 709 mmHg 52%
11:00 +18°C° 0 mm 2 mps 710 mmHg 44%
12:00 +19°C° 0 mm 2 mps 709 mmHg 42%
13:00 +20°C° 0 mm 2 mps 708 mmHg 40%
14:00 +21°C° 0 mm 2 mps 708 mmHg 39%
15:00 +21°C° 0 mm 2 mps 708 mmHg 39%
16:00 +21°C° 0 mm 2 mps 708 mmHg 40%
17:00 +22°C° 0 mm 1 mps 707 mmHg 40%
18:00 +20°C° 0 mm 1 mps 708 mmHg 46%
19:00 +18°C° 0 mm 1 mps 708 mmHg 52%
20:00 +15°C° 0 mm 1 mps 708 mmHg 58%
21:00 +14°C° 0 mm 1 mps 708 mmHg 64%
22:00 +14°C° 0 mm 1 mps 708 mmHg 69%
23:00 +13°C° 0 mm 2 mps 708 mmHg 75%
Show more